Simultaneous Nadir Overpasses (SNOs) Predictions

Prediction of SNOs between AQUA and METOP-A Satellite Orbit:

Table of predicted SNOs for the next 14.0 days since TLE Epoch: 2/8/2014
Index Date (AQUA) Time (AQUA) Lat,Lon (AQUA) SZA (AQUA ) Date (METOP-A) Time (METOP-A) Lat,Lon (METOP-A) SZA (METOP-A ) Distance(km) Time Diff (sec)
1 02/10/2014 06:27:38 -73.88,-102.76 91.65 02/10/2014 06:27:05 -73.89,-102.80 91.63 1.52 33
2 02/10/2014 07:17:07 73.96, 64.72 88.43 02/10/2014 07:17:44 73.94, 64.66 88.41 2.47 37
3 02/13/2014 02:01:57 -73.87, -36.31 92.59 02/13/2014 02:01:28 -73.88, -36.42 92.57 3.53 29
4 02/13/2014 02:51:26 73.95, 131.15 87.49 02/13/2014 02:52:06 73.97, 131.14 87.51 2.58 40
5 02/15/2014 21:36:15 -73.93, 30.00 93.49 02/15/2014 21:35:49 -73.92, 30.07 93.50 2.41 26
6 02/15/2014 22:25:43 73.96,-162.43 86.54 02/15/2014 22:26:28 73.96,-162.50 86.53 2.20 45
7 02/18/2014 17:10:31 -73.89, 96.53 94.52 02/18/2014 17:10:12 -73.90, 96.44 94.49 3.32 19
8 02/18/2014 18:00:00 73.97, -96.03 85.57 02/18/2014 18:00:50 73.99, -96.02 85.58 1.84 50
9 02/21/2014 11:55:12 73.43, -3.68 83.99 02/21/2014 11:54:04 73.34, -5.79 84.02 67.83 68
10 02/21/2014 12:44:47 -73.91, 162.92 95.51 02/21/2014 12:44:34 -73.94, 162.92 95.47 3.34 13
11 02/21/2014 13:34:16 74.00, -29.64 84.58 02/21/2014 13:35:13 73.97, -29.67 84.55 3.17 57




NCC Satellite Simultaneous Nadir Overpasses (SNOs) Prediction Service
